Location: Mount Lemmon
(32.4432°N, 110.7577°W)
Time: 04:05:53
(UTC-07:00)

Tiangong 2 - Visible Passes

Search period start: 20 September 2017 00:00
Search period end: 30 September 2017 00:00
Orbit: 389 x 393 km, 42.8° (Epoch: 20 September)

Date Brightness Start Highest point End Pass type
(mag) Time Alt. Az. Time Alt. Az. Time Alt. Az.
20 Sep 2.8 20:00:14 10° W 20:02:58 26° SW 20:02:58 26° SW visible
21 Sep 1.7 19:02:30 10° WNW 19:05:37 53° SW 19:08:34 11° SE visible
22 Sep 4.0 19:43:31 10° WSW 19:44:44 12° SW 19:45:56 10° SSW visible
23 Sep 3.3 18:44:51 10° W 18:47:26 23° SW 18:50:01 10° SSE visible
